Theta_e
310 310 311 311 311 312 312 312 312 313 313 313 313 314 314 314 314 314 314 313 312 312 314 315 316 316 316 316 317 317 321 321 320 319 319 317 318 315 316 317 315 317 318 318 317
310 311 311 311 312 312 312 312 313 313 313 313 313 314 314 314 314 314 314 314 313 312 313 314 315 316 317 318 318 319 321 320 318 318 318 317 317 317 317 317 317 316 317 317 317
311 311 312 312 312 312 312 313 313 313 313 313 313 313 313 313 314 313 313 313 313 313 313 314 314 316 317 317 318 318 320 319 316 315 314 315 316 316 317 318 317 317 317 317 317
312 312 312 312 312 312 312 312 312 312 312 311 311 311 311 310 316 313 314 314 314 313 313 314 314 316 318 318 317 318 318 317 317 316 316 316 316 316 316 316 316 316 316 316 315
311 311 310 310 310 310 310 310 310 311 311 312 312 312 310 309 311 313 314 314 313 313 313 313 314 316 317 316 315 317 317 316 316 315 316 316 316 317 316 315 316 315 314 314 314
308 308 308 308 309 310 311 312 313 315 316 317 317 316 315 310 311 311 312 313 313 313 313 313 314 314 315 315 316 314 314 315 314 315 315 314 315 313 315 315 314 314 313 314 314
310 311 311 312 313 314 315 316 317 317 317 317 316 316 313 317 316 313 311 311 312 313 313 313 313 314 314 315 313 313 315 315 314 313 314 312 315 314 314 314 313 313 314 313 313
313 313 313 314 315 316 317 317 317 317 317 317 317 316 312 314 314 314 311 309 311 313 313 313 313 313 314 312 313 313 313 315 314 312 312 314 315 316 314 312 313 314 314 314 314
313 314 315 316 317 319 320 320 319 319 318 318 316 313 312 313 312 313 312 310 310 311 312 311 311 312 312 314 314 313 315 315 313 312 312 314 315 315 313 313 313 313 313 313 313
315 316 318 319 320 321 321 321 321 319 318 316 313 311 312 312 312 312 312 311 311 311 311 311 312 313 312 314 317 319 316 314 313 314 312 312 313 313 312 311 312 312 313 313 312
319 320 320 321 322 322 322 322 319 318 315 315 313 313 314 313 312 312 312 311 311 311 313 311 313 315 316 315 315 313 313 314 314 314 313 313 313 313 313 313 313 312 313 313 312
321 321 322 322 322 323 322 322 320 316 315 320 320 318 315 312 312 312 311 311 311 314 310 312 313 314 311 310 311 312 313 314 314 313 310 313 313 313 314 313 314 313 313 313 313
320 321 322 323 323 322 322 321 321 318 313 316 314 313 312 312 312 312 312 311 312 312 312 316 317 310 310 312 311 312 312 314 313 312 312 312 316 315 315 312 312 312 312 312 312
321 322 322 322 322 321 321 320 319 318 321 319 309 310 309 308 308 308 310 310 310 313 312 312 310 310 310 311 312 313 311 311 311 312 316 311 317 317 316 315 315 313 313 312 311
321 322 322 322 322 321 321 318 318 314 328 311 308 310 310 308 309 309 309 310 311 310 311 313 310 310 311 312 310 313 309 310 310 312 311 314 314 318 312 314 314 313 313 313 311
323 323 323 320 320 321 321 319 318 322 327 316 308 310 310 309 308 309 309 309 308 310 309 311 307 309 311 308 309 308 310 310 309 311 316 316 315 317 315 314 313 314 313 313 309
322 321 322 320 319 320 319 319 321 325 317 312 311 311 311 312 310 309 311 311 313 316 315 313 314 309 308 311 308 310 312 317 318 318 319 312 313 314 314 313 314 312 310 307 306
320 321 320 320 320 320 318 319 322 320 320 316 312 312 320 316 314 310 310 314 310 311 315 317 318 310 308 312 315 313 314 317 321 322 321 314 316 316 315 313 310 306 306 305 305
318 318 317 318 319 320 318 320 320 320 319 320 319 321 320 317 317 315 314 316 315 311 316 317 316 309 307 309 312 314 313 313 316 317 316 316 316 316 314 310 308 308 308 306 304
316 315 316 317 317 319 318 320 318 316 317 317 318 318 318 316 316 314 314 312 312 309 308 314 315 313 312 307 307 310 309 313 312 317 320 316 315 315 314 310 309 307 306 304 302
309 310 311 314 315 315 317 317 316 314 316 316 318 318 317 315 315 315 313 313 310 307 307 309 313 314 311 310 312 310 310 310 309 313 317 318 316 313 311 308 306 305 302 300 299
306 308 308 310 314 314 315 314 312 313 313 313 314 315 315 315 314 313 313 313 311 312 314 313 312 317 314 313 310 310 312 312 314 315 314 314 315 314 311 307 300 299 298 297 295
304 305 306 311 312 312 310 310 310 310 311 311 312 312 312 312 312 311 312 310 309 312 313 312 312 317 314 311 309 311 312 311 312 312 315 316 315 310 308 305 298 297 298 296 295
303 306 305 309 309 309 310 309 310 309 310 310 310 310 310 311 310 310 310 311 308 306 306 308 311 313 315 312 311 311 310 310 308 308 310 310 309 306 304 301 297 295 294 295 294
301 302 303 307 308 308 308 308 308 308 308 309 308 309 310 311 309 310 308 304 303 299 299 303 308 308 308 303 302 303 303 302 302 302 304 303 303 302 298 294 293 292 292 291 293
298 299 299 300 300 303 305 306 305 305 306 305 306 305 305 307 307 306 302 302 304 298 299 298 302 300 300 301 301 301 299 298 298 298 298 299 298 295 293 291 291 291 291 291 291
295 296 296 296 298 301 301 302 301 301 297 299 300 301 301 301 297 297 297 297 298 299 298 298 299 299 300 298 295 296 298 298 297 296 296 296 297 292 291 291 290 290 291 290 291
Wind_Speed
4 4 4 5 5 5 6 6 6 6 6 6 7 7 8 10 11 14 16 12 7 10 9 8 7 5 4 3 3 4 4 5 4 5 2 3 4 4 5 8 9 11 15 15 18
6 6 6 7 7 7 7 8 8 8 8 9 9 10 11 12 15 17 5 2 3 5 9 9 9 7 3 3 3 5 4 5 3 5 5 3 7 10 7 13 18 16 21 22 21
9 9 9 10 10 10 10 10 11 11 11 11 12 13 13 13 16 2 5 2 0 4 9 10 9 8 5 3 6 4 6 5 7 11 8 7 9 7 10 13 19 18 14 14 19
11 11 12 12 12 12 13 13 13 13 13 13 13 14 15 12 6 3 5 7 7 8 12 11 9 5 5 6 6 6 14 12 6 6 4 7 7 10 15 33 25 23 22 19 27
13 13 13 13 13 14 14 14 14 14 14 13 13 14 14 7 13 17 15 14 10 10 13 13 10 6 6 5 4 10 10 10 11 15 16 14 20 17 27 35 27 24 24 21 20
13 14 14 14 13 14 14 15 14 14 14 13 13 14 14 10 10 10 9 8 8 11 14 13 7 11 4 5 8 4 8 15 12 19 16 11 24 3 20 18 19 19 21 18 18
13 13 13 13 12 13 14 14 14 14 14 14 13 14 17 20 14 13 15 11 11 12 14 14 14 8 3 3 4 6 12 16 15 11 8 4 8 12 23 14 25 20 17 20 31
14 14 13 12 12 11 13 14 14 14 13 13 12 12 11 15 14 13 14 14 11 12 13 13 12 10 5 2 3 5 5 9 1 5 2 5 16 16 12 5 20 29 33 31 33
13 12 11 11 10 10 11 12 13 13 13 13 11 8 7 10 7 9 10 10 11 12 11 8 9 4 2 5 7 5 10 12 11 7 1 8 14 10 14 29 36 34 34 32 33
11 10 10 9 10 10 11 12 13 12 10 7 9 4 11 6 5 5 5 7 7 11 7 6 3 4 3 7 10 15 11 10 10 8 6 14 22 22 33 25 36 38 34 23 25
11 10 9 9 9 10 9 8 5 5 4 6 5 11 13 13 11 9 7 12 11 7 7 3 7 11 17 17 14 10 14 18 18 17 19 16 19 20 31 30 32 35 26 19 18
11 10 10 9 9 8 7 2 4 5 9 15 21 25 25 11 6 6 10 9 8 8 7 4 11 17 4 4 8 12 14 18 16 12 4 16 20 23 22 24 24 20 18 16 14
14 12 11 10 10 8 4 3 5 8 5 8 7 5 3 6 7 10 13 8 6 8 12 16 9 0 9 11 12 11 13 18 15 12 13 12 14 4 7 12 16 6 7 9 12
16 15 12 11 10 5 2 3 6 6 4 3 1 0 1 2 1 3 10 3 2 8 6 9 3 6 4 10 12 14 6 13 10 5 8 7 11 8 8 14 10 5 8 9 15
20 17 15 11 5 4 3 3 4 1 7 2 2 2 3 2 4 2 7 5 4 4 4 2 3 4 5 5 8 3 2 2 3 8 7 6 6 1 3 3 3 1 8 13 18
22 15 11 8 9 4 5 3 4 4 8 3 2 2 3 1 1 3 2 3 2 3 3 7 1 3 3 2 4 1 3 3 1 3 7 3 7 1 3 3 1 11 8 18 16
14 10 16 12 9 10 10 2 2 5 2 3 2 2 3 3 3 2 3 3 3 3 3 3 9 2 4 5 3 4 3 6 5 5 10 3 6 7 6 10 8 13 25 25 19
11 13 13 12 13 11 14 2 7 2 4 1 3 1 2 3 3 2 3 6 7 4 8 8 12 7 7 8 5 7 8 7 7 13 20 5 13 7 9 2 13 19 18 21 24
11 12 11 9 11 15 13 6 6 8 5 4 3 6 8 2 3 3 3 10 5 11 9 10 17 3 7 3 1 1 8 11 13 15 10 16 24 15 10 10 16 15 17 18 17
12 12 16 13 14 18 6 12 5 6 5 3 7 5 4 3 3 2 6 1 3 4 4 5 13 8 4 1 3 9 2 5 5 7 19 20 19 13 12 6 8 12 17 18 18
8 5 7 16 13 10 3 4 4 7 7 4 7 7 5 3 10 13 11 9 5 2 4 4 7 15 3 7 14 5 7 7 4 9 17 19 17 14 11 9 10 8 9 11 13
7 3 7 16 8 5 8 4 2 1 2 2 2 7 14 12 14 17 18 16 4 5 6 4 3 10 20 14 8 8 16 18 12 16 13 16 21 20 9 9 9 6 7 7 9
7 7 9 21 6 9 2 3 5 6 7 3 6 6 4 6 6 11 14 3 4 3 4 4 4 4 8 6 1 6 9 13 15 8 20 19 16 8 18 21 10 10 7 5 6
8 3 6 16 8 6 8 7 7 8 10 10 9 11 9 12 11 9 10 2 1 3 4 4 4 9 13 19 7 6 8 7 3 3 9 12 18 20 21 17 13 12 12 12 10
10 4 6 5 7 8 7 2 5 5 6 9 3 9 10 5 4 6 2 2 2 6 3 1 9 10 12 11 8 10 11 15 15 15 8 16 21 23 10 8 14 18 15 17 16
6 5 4 3 4 7 8 7 17 14 8 6 10 1 2 5 5 6 1 3 5 3 1 1 2 2 6 10 12 14 20 22 21 22 25 25 23 3 2 8 13 18 22 26 23
8 6 4 3 5 6 4 5 4 8 2 2 0 1 1 3 3 2 4 5 6 4 4 3 3 2 8 12 13 14 16 17 16 18 11 12 6 2 1 8 14 20 20 27 27
Wind_Direction
308 313 320 325 327 329 328 328 328 327 327 327 326 326 325 321 315 305 295 275 256 229 226 220 212 213 207 205 184 163 236 251 253 193 224 182 251 219 250 257 238 228 243 268 282
287 294 299 300 302 306 308 310 309 309 310 312 313 313 316 318 315 306 277 211 210 223 223 218 215 209 195 192 192 212 237 259 240 222 269 260 240 283 267 263 263 263 260 268 269
285 289 291 292 296 297 299 300 300 302 304 305 306 304 309 319 321 213 163 121 116 220 210 214 216 200 212 204 201 190 243 243 245 247 259 270 264 248 265 272 263 270 281 275 270
281 284 286 288 290 292 294 295 296 297 299 301 302 302 305 309 298 210 221 280 284 239 216 207 202 192 217 215 200 236 246 243 266 261 249 261 280 263 249 265 280 285 280 270 275
279 281 283 286 288 289 290 292 295 296 298 300 300 299 302 278 258 273 268 277 264 231 216 216 202 201 232 222 206 241 263 255 259 267 265 266 263 270 271 273 286 282 287 286 278
271 275 280 285 288 291 293 294 297 297 297 297 294 292 288 259 269 265 268 261 244 227 220 217 225 230 257 233 223 335 283 279 278 268 260 252 271 232 270 288 288 289 288 287 298
265 268 273 279 284 290 293 294 295 295 294 291 286 282 275 268 265 257 264 256 238 229 228 233 231 210 190 245 266 300 299 294 259 266 235 218 255 232 269 284 289 291 290 292 294
263 266 270 275 283 291 296 298 299 298 295 288 281 272 259 270 264 263 258 254 235 225 229 233 229 233 234 266 270 271 264 288 69 168 251 205 276 285 300 303 293 290 288 285 284
259 263 268 276 285 297 301 302 301 299 295 287 277 241 261 269 276 266 254 239 226 218 216 214 191 210 208 239 272 224 270 261 296 202 255 226 292 284 297 301 290 287 283 285 291
253 257 265 276 290 303 311 312 303 292 279 274 253 245 241 261 266 257 242 197 182 180 154 167 160 220 208 216 258 286 266 256 267 288 256 280 276 286 289 280 279 283 283 294 291
247 253 261 275 291 308 319 330 312 297 252 237 253 254 274 264 259 257 208 173 154 164 193 168 211 214 238 233 271 288 281 281 277 284 296 273 283 282 283 281 275 277 298 295 294
246 249 258 269 284 305 323 321 305 286 292 267 258 254 252 248 263 225 184 180 179 205 138 168 233 237 319 261 243 258 273 278 285 284 285 298 295 279 274 270 269 283 294 297 319
245 248 254 264 281 292 298 325 314 323 262 278 274 270 265 253 235 237 201 203 207 186 201 242 266 227 223 251 255 254 263 276 274 319 285 312 284 267 269 259 275 305 302 333 350
247 248 256 276 281 231 267 318 321 338 264 229 208 52 146 157 156 227 204 206 190 255 214 253 290 234 199 248 241 272 295 264 276 295 297 10 296 299 263 271 290 314 305 18 15
248 249 249 248 228 225 233 26 303 2 276 104 134 141 133 171 136 51 177 191 206 184 203 236 175 168 201 238 180 274 358 294 267 277 306 228 260 57 288 304 302 197 16 7 356
253 243 228 192 225 212 188 49 12 200 241 153 125 134 150 72 98 114 131 126 123 194 248 266 234 232 242 131 194 135 288 268 241 275 259 287 228 62 98 134 258 322 336 359 24
214 244 228 215 219 199 188 210 293 220 90 146 134 178 128 157 125 153 158 183 205 294 253 252 251 215 203 244 163 182 294 307 269 229 267 122 246 263 270 241 345 353 17 25 36
261 221 236 233 227 207 180 147 228 245 284 210 155 105 250 168 160 180 169 243 222 228 284 283 284 188 169 216 205 211 253 248 279 276 285 254 259 275 223 238 50 65 57 39 33
244 251 242 228 234 201 181 217 219 183 194 199 153 234 240 194 246 242 261 276 262 197 246 280 263 194 220 153 183 255 234 259 265 269 279 262 267 267 235 76 52 44 41 35 28
231 230 234 231 227 214 214 238 222 200 165 173 236 207 202 193 242 278 268 141 271 224 255 263 282 239 210 210 207 230 1 238 221 257 253 269 276 263 271 63 22 18 8 8 1
224 241 212 209 203 210 239 240 220 227 177 177 204 219 219 201 252 268 266 276 252 85 18 323 257 266 207 216 245 221 233 228 271 246 253 264 267 270 77 57 2 23 10 7 8
214 218 203 181 188 205 233 198 146 161 284 329 244 245 251 260 271 265 259 249 129 136 264 221 247 266 268 269 249 271 256 247 244 250 238 254 254 282 25 29 45 359 24 37 25
194 210 199 185 211 213 217 256 243 205 217 215 251 231 261 248 253 239 248 259 359 271 271 176 232 275 277 214 96 235 267 273 275 288 250 258 266 334 321 335 31 16 9 348 335
172 176 196 211 224 215 215 241 236 211 218 208 243 235 255 260 248 265 260 179 78 23 348 328 232 233 258 278 332 252 265 243 249 271 297 267 284 286 302 325 345 347 340 331 319
178 211 184 195 214 209 209 200 197 215 241 186 227 231 244 257 245 235 267 60 75 9 41 339 262 276 283 321 308 283 270 270 274 272 268 287 283 281 341 342 327 326 327 326 315
167 165 188 151 109 178 192 228 243 242 250 234 248 284 254 238 253 283 347 199 274 79 117 212 257 308 283 266 262 281 279 271 272 266 262 265 276 74 347 339 334 326 326 322 316
182 172 151 140 158 167 203 205 161 139 55 6 58 107 238 226 127 153 225 232 233 212 207 234 255 239 262 301 316 281 269 278 278 274 287 274 302 139 281 327 322 320 315 313 307